Change the Weather History Date:

Tuesday, February 11, 2014

  Actual Average Record
Temperature  
Mean Temperature 19 °F 31 °F  
Max Temperature 32 °F 44 °F 82 °F (1962)
Min Temperature 5 °F 18 °F -19 °F (1905)
Degree Days  
Heating Degree Days 47    
Moisture  
Dew Point 15 °F    
Average Humidity 84    
Maximum Humidity 92    
Minimum Humidity 69    
Precipitation  
Precipitation 0.00 in 0.01 in 0.15 in (1948)
Month to date precipitation 0.04 0.13  
Year to date precipitation 0.37 0.51  
Sea Level Pressure  
Sea Level Pressure 30.15 in    
Wind  
Wind Speed 10 mph (WSW)    
Max Wind Speed 17 mph    
Max Gust Speed -    
Visibility 7 miles    
Events      
T = Trace of Precipitation, MM = Missing Value Source: NWS Daily Summary

Daily Weather History Graph

Daily Weather History Graph

Search for Another Location

Airport or City:

Trip Planner

Search our weather history database for the weather conditions in past years. The results will help you decide how hot, cold, wet, or windy it might be!

Date:

Astronomy

Feb. 11, 2014 Rise Set
Actual Time 6:45 AM MST 5:21 PM MST
Civil Twilight 6:17 AM MST 5:49 PM MST
Nautical Twilight 5:46 AM MST 6:20 PM MST
Astronomical Twilight 5:15 AM MST 6:52 PM MST
Moon 2:44 PM MST (2/11) 4:23 AM MST (2/11)
Length of Visible Light 11h 31m
Length of Day
10h 36m
Waxing Gibbous, 91% of the Moon is Illuminated
Feb 11
Waxing Gibbous
Feb 14
Full
Feb 22
Last Quarter
Mar 1
New
Mar 8
First Quarter

Hourly Weather History & Observations

Time (MST) Temp. Windchill Dew Point Humidity Pressure Visibility Wind Dir Wind Speed Gust Speed Precip Events Conditions
12:44 AM 9.0 °F -4.2 °F 5.0 °F 84% 30.15 in 7.0 mi SW 9.2 mph - N/A   Scattered Clouds
12:53 AM 9.0 °F -4.2 °F 6.1 °F 88% 30.31 in 7.0 mi SW 9.2 mph - N/A   Mostly Cloudy
1:15 AM 8.1 °F -0.5 °F 3.9 °F 83% 30.14 in 7.0 mi West 4.6 mph - N/A   Partly Cloudy
1:53 AM 6.1 °F -7.8 °F 3.9 °F 91% 30.31 in 6.0 mi SW 9.2 mph - N/A   Clear
2:06 AM 6.1 °F -8.7 °F 1.9 °F 83% 30.13 in 6.0 mi SW 10.4 mph - N/A   Scattered Clouds
2:14 AM 10.0 °F -2.9 °F 6.1 °F 84% 30.13 in 4.0 mi SW 9.2 mph - N/A   Mostly Cloudy
2:42 AM 9.0 °F 0.6 °F 6.1 °F 88% 30.12 in 5.0 mi SW 4.6 mph - N/A   Scattered Clouds
2:53 AM 10.0 °F -1.9 °F 6.1 °F 84% 30.27 in 4.0 mi SW 8.1 mph - N/A   Scattered Clouds
3:03 AM 9.0 °F -3.2 °F 6.1 °F 88% 30.11 in 5.0 mi SW 8.1 mph - N/A   Mostly Cloudy
3:13 AM 8.1 °F -6.2 °F 3.9 °F 83% 30.11 in 5.0 mi SW 10.4 mph - N/A   Scattered Clouds
3:53 AM 10.0 °F -5.2 °F 6.1 °F 84% 30.26 in 8.0 mi SW 12.7 mph - N/A   Clear
4:53 AM 10.9 °F -4.7 °F 7.0 °F 84% 30.25 in 9.0 mi WSW 13.8 mph - N/A   Clear
5:53 AM 10.0 °F -3.7 °F 6.1 °F 84% 30.23 in 9.0 mi WSW 10.4 mph - N/A   Clear
6:53 AM 12.9 °F -3.4 °F 9.0 °F 84% 30.22 in 9.0 mi WSW 16.1 mph - N/A   Clear
7:53 AM 16.0 °F 0.6 °F 12.0 °F 84% 30.23 in 7.0 mi WSW 16.1 mph - N/A   Clear
8:53 AM 19.9 °F 6.2 °F 17.1 °F 89% 30.22 in 6.0 mi WSW 15.0 mph - N/A   Clear
9:53 AM 27.0 °F 14.3 °F 21.9 °F 81% 30.18 in 9.0 mi SW 17.3 mph - N/A   Clear
10:53 AM 28.9 °F 16.9 °F 24.1 °F 82% 30.18 in 6.0 mi WSW 17.3 mph - N/A   Haze
11:53 AM 30.9 °F 20.2 °F 26.1 °F 82% 30.15 in 5.0 mi SW 15.0 mph - N/A   Haze
12:53 PM 30.9 °F 20.7 °F 26.1 °F 82% 30.11 in 6.0 mi SW 13.8 mph - N/A   Haze
1:53 PM 30.9 °F 20.7 °F 27.0 °F 85% 30.08 in 6.0 mi SW 13.8 mph - N/A   Clear
2:53 PM 30.0 °F 19.5 °F 27.0 °F 88% 30.06 in 5.0 mi SW 13.8 mph - N/A   Clear
3:53 PM 30.0 °F 19.1 °F 26.1 °F 85% 30.03 in 5.0 mi SW 15.0 mph - N/A   Clear
4:53 PM 30.0 °F 21.1 °F 25.0 °F 82% 30.05 in 6.0 mi WSW 10.4 mph - N/A   Haze
5:53 PM 28.0 °F 19.3 °F 25.0 °F 88% 30.08 in 6.0 mi SW 9.2 mph - N/A   Clear
6:53 PM 28.0 °F 20.0 °F 25.0 °F 88% 30.08 in 7.0 mi SW 8.1 mph - N/A   Clear
7:53 PM 27.0 °F 18.0 °F 21.9 °F 81% 30.08 in 8.0 mi West 9.2 mph - N/A   Clear
8:53 PM 24.1 °F 18.2 °F 19.9 °F 84% 30.08 in 9.0 mi West 4.6 mph - N/A   Clear
9:53 PM 21.0 °F 10.6 °F 19.0 °F 92% 30.08 in 9.0 mi West 9.2 mph - N/A   Clear
10:53 PM 25.0 °F 14.8 °F 19.9 °F 81% 30.06 in 10.0 mi West 10.4 mph - N/A   Mostly Cloudy
11:53 PM 28.0 °F 18.1 °F 19.0 °F 69% 30.06 in 10.0 mi WNW 11.5 mph - N/A   Overcast